Year,Month,Day,Hour,Minute,Value (Times are PST for temperature in C)
2015,05,18,00,00,14.10
2015,05,18,00,01,14.10
2015,05,18,00,02,14.10
2015,05,18,00,03,14.00
2015,05,18,00,04,14.00
2015,05,18,00,05,14.00
2015,05,18,00,06,14.00
2015,05,18,00,07,13.90
2015,05,18,00,08,13.90
2015,05,18,00,09,13.90
2015,05,18,00,10,13.80
2015,05,18,00,11,13.80
2015,05,18,00,12,13.80
2015,05,18,00,13,13.80
2015,05,18,00,14,13.70
2015,05,18,00,15,13.70
2015,05,18,00,16,13.70
2015,05,18,00,17,13.70
2015,05,18,00,18,13.60
2015,05,18,00,19,13.60
2015,05,18,00,20,13.60
2015,05,18,00,21,13.60
2015,05,18,00,22,13.60
2015,05,18,00,23,13.50
2015,05,18,00,24,13.50
2015,05,18,00,25,13.50
2015,05,18,00,26,13.50
2015,05,18,00,27,13.50
2015,05,18,00,28,13.40
2015,05,18,00,29,13.40
2015,05,18,00,30,13.40
2015,05,18,00,31,13.40
2015,05,18,00,32,13.40
2015,05,18,00,33,13.40
2015,05,18,00,34,13.40
2015,05,18,00,35,13.40
2015,05,18,00,36,13.40
2015,05,18,00,37,13.40
2015,05,18,00,38,13.40
2015,05,18,00,39,13.40
2015,05,18,00,40,13.30
2015,05,18,00,41,13.30
2015,05,18,00,42,13.30
2015,05,18,00,43,13.30
2015,05,18,00,44,13.20
2015,05,18,00,45,13.20
2015,05,18,00,46,13.20
2015,05,18,00,47,13.20
2015,05,18,00,48,13.20
2015,05,18,00,49,13.20
2015,05,18,00,50,13.20
2015,05,18,00,51,13.20
2015,05,18,00,52,13.20
2015,05,18,00,53,13.20
2015,05,18,00,54,13.20
2015,05,18,00,55,13.20
2015,05,18,00,56,13.20
2015,05,18,00,57,13.20
2015,05,18,00,58,13.20
2015,05,18,00,59,13.20
2015,05,18,01,00,13.20
2015,05,18,01,01,13.20
2015,05,18,01,02,13.20
2015,05,18,01,03,13.20
2015,05,18,01,04,13.20
2015,05,18,01,05,13.20
2015,05,18,01,06,13.20
2015,05,18,01,07,13.20
2015,05,18,01,08,13.20
2015,05,18,01,09,13.20
2015,05,18,01,10,13.20
2015,05,18,01,11,13.20
2015,05,18,01,12,13.20
2015,05,18,01,13,13.20
2015,05,18,01,14,13.20
2015,05,18,01,15,13.20
2015,05,18,01,16,13.20
2015,05,18,01,17,13.10
2015,05,18,01,18,13.10
2015,05,18,01,19,13.10
2015,05,18,01,20,13.10
2015,05,18,01,21,13.10
2015,05,18,01,22,13.10
2015,05,18,01,23,13.00
2015,05,18,01,24,13.00
2015,05,18,01,25,13.00
2015,05,18,01,26,13.00
2015,05,18,01,27,13.00
2015,05,18,01,28,13.00
2015,05,18,01,29,13.00
2015,05,18,01,30,13.00
2015,05,18,01,31,13.00
2015,05,18,01,32,13.00
2015,05,18,01,33,13.00
2015,05,18,01,34,13.00
2015,05,18,01,35,13.00
2015,05,18,01,36,13.10
2015,05,18,01,37,13.00
2015,05,18,01,38,13.10
2015,05,18,01,39,13.00
2015,05,18,01,40,13.00
2015,05,18,01,41,13.00
2015,05,18,01,42,13.00
2015,05,18,01,43,13.00
2015,05,18,01,44,13.00
2015,05,18,01,45,13.00
2015,05,18,01,46,13.00
2015,05,18,01,47,13.00
2015,05,18,01,48,12.90
2015,05,18,01,49,12.90
2015,05,18,01,50,12.90
2015,05,18,01,51,12.90
2015,05,18,01,52,12.90
2015,05,18,01,53,12.90
2015,05,18,01,54,12.90
2015,05,18,01,55,12.90
2015,05,18,01,56,12.90
2015,05,18,01,57,12.80
2015,05,18,01,58,12.80
2015,05,18,01,59,12.80
2015,05,18,02,00,12.80
2015,05,18,02,01,12.80
2015,05,18,02,02,12.80
2015,05,18,02,03,12.80
2015,05,18,02,04,12.80
2015,05,18,02,05,12.70
2015,05,18,02,06,12.70
2015,05,18,02,07,12.70
2015,05,18,02,08,12.70
2015,05,18,02,09,12.70
2015,05,18,02,10,12.70
2015,05,18,02,11,12.80
2015,05,18,02,12,12.70
2015,05,18,02,13,12.80
2015,05,18,02,14,12.80
2015,05,18,02,15,12.80
2015,05,18,02,16,12.80
2015,05,18,02,17,12.80
2015,05,18,02,18,12.80
2015,05,18,02,19,12.80
2015,05,18,02,20,12.80
2015,05,18,02,21,12.80
2015,05,18,02,22,12.80
2015,05,18,02,23,12.80
2015,05,18,02,24,12.80
2015,05,18,02,25,12.80
2015,05,18,02,26,12.80
2015,05,18,02,27,12.80
2015,05,18,02,28,12.80
2015,05,18,02,29,12.80
2015,05,18,02,30,12.80
2015,05,18,02,31,12.80
2015,05,18,02,32,12.80
2015,05,18,02,33,12.80
2015,05,18,02,34,12.80
2015,05,18,02,35,12.80
2015,05,18,02,36,12.80
2015,05,18,02,37,12.80
2015,05,18,02,38,12.80
2015,05,18,02,39,12.80
2015,05,18,02,40,12.80
2015,05,18,02,41,12.80
2015,05,18,02,42,12.80
2015,05,18,02,43,12.80
2015,05,18,02,44,12.80
2015,05,18,02,45,12.80
2015,05,18,02,46,12.80
2015,05,18,02,47,12.80
2015,05,18,02,48,12.80
2015,05,18,02,49,12.80
2015,05,18,02,50,12.80
2015,05,18,02,51,12.80
2015,05,18,02,52,12.80
2015,05,18,02,53,12.80
2015,05,18,02,54,12.80
2015,05,18,02,55,12.80
2015,05,18,02,56,12.80
2015,05,18,02,57,12.80
2015,05,18,02,58,12.80
2015,05,18,02,59,12.80
2015,05,18,03,00,12.90
2015,05,18,03,01,12.90
2015,05,18,03,02,12.90
2015,05,18,03,06,12.90
2015,05,18,03,07,12.90
2015,05,18,03,08,12.90
2015,05,18,03,09,12.90
2015,05,18,03,10,12.90
2015,05,18,03,11,12.90
2015,05,18,03,12,12.90
2015,05,18,03,13,12.90
2015,05,18,03,14,13.00
2015,05,18,03,15,13.00
2015,05,18,03,16,13.00
2015,05,18,03,17,13.00
2015,05,18,03,18,13.10
2015,05,18,03,19,13.10
2015,05,18,03,20,13.10
2015,05,18,03,21,13.10
2015,05,18,03,22,13.10
2015,05,18,03,23,13.10
2015,05,18,03,24,13.10
2015,05,18,03,25,13.10
2015,05,18,03,26,13.10
2015,05,18,03,27,13.10
2015,05,18,03,28,13.10
2015,05,18,03,29,13.10
2015,05,18,03,30,13.10
2015,05,18,03,31,13.10
2015,05,18,03,32,13.10
2015,05,18,03,33,13.10
2015,05,18,03,34,13.10
2015,05,18,03,35,13.10
2015,05,18,03,36,13.10
2015,05,18,03,37,13.10
2015,05,18,03,38,13.10
2015,05,18,03,39,13.10
2015,05,18,03,40,13.10
2015,05,18,03,41,13.10
2015,05,18,03,42,13.10
2015,05,18,03,43,13.10
2015,05,18,03,44,13.10
2015,05,18,03,45,13.10
2015,05,18,03,46,13.10
2015,05,18,03,47,13.00
2015,05,18,03,48,13.00
2015,05,18,03,49,13.00
2015,05,18,03,50,13.00
2015,05,18,03,51,13.00
2015,05,18,03,52,13.00
2015,05,18,03,53,13.00
2015,05,18,03,54,12.90
2015,05,18,03,55,12.90
2015,05,18,03,56,12.90
2015,05,18,03,57,12.90
2015,05,18,03,58,12.90
2015,05,18,03,59,12.90
2015,05,18,04,00,12.90
2015,05,18,04,01,12.90
2015,05,18,04,02,12.90
2015,05,18,04,03,12.80
2015,05,18,04,04,12.80
2015,05,18,04,05,12.80
2015,05,18,04,06,12.80
2015,05,18,04,07,12.80
2015,05,18,04,08,12.80
2015,05,18,04,09,12.90
2015,05,18,04,10,12.90
2015,05,18,04,11,12.90
2015,05,18,04,12,12.90
2015,05,18,04,13,13.00
2015,05,18,04,14,13.00
2015,05,18,04,15,13.10
2015,05,18,04,16,13.10
2015,05,18,04,17,13.10
2015,05,18,04,18,13.10
2015,05,18,04,19,13.10
2015,05,18,04,20,13.10
2015,05,18,04,21,13.10
2015,05,18,04,22,13.10
2015,05,18,04,23,13.10
2015,05,18,04,24,13.10
2015,05,18,04,25,13.10
2015,05,18,04,26,13.10
2015,05,18,04,27,13.10
2015,05,18,04,28,13.10
2015,05,18,04,29,13.10
2015,05,18,04,30,13.10
2015,05,18,04,31,13.10
2015,05,18,04,32,13.10
2015,05,18,04,33,13.10
2015,05,18,04,34,13.10
2015,05,18,04,35,13.10
2015,05,18,04,36,13.10
2015,05,18,04,37,13.10
2015,05,18,04,38,13.10
2015,05,18,04,39,13.10
2015,05,18,04,40,13.10
2015,05,18,04,41,13.10
2015,05,18,04,42,13.10
2015,05,18,04,43,13.10
2015,05,18,04,44,13.10
2015,05,18,04,45,13.10
2015,05,18,04,46,13.10
2015,05,18,04,47,13.10
2015,05,18,04,48,13.10
2015,05,18,04,49,13.10
2015,05,18,04,50,13.00
2015,05,18,04,51,13.00
2015,05,18,04,52,13.00
2015,05,18,04,53,13.00
2015,05,18,04,54,13.00
2015,05,18,04,55,13.10
2015,05,18,04,56,13.10
2015,05,18,04,57,13.10
2015,05,18,04,58,13.10
2015,05,18,04,59,13.10
2015,05,18,05,00,13.10
2015,05,18,05,01,13.10
2015,05,18,05,02,13.10
2015,05,18,05,03,13.10
2015,05,18,05,04,13.10
2015,05,18,05,05,13.10
2015,05,18,05,06,13.10
2015,05,18,05,07,13.10
2015,05,18,05,08,13.10
2015,05,18,05,09,13.10
2015,05,18,05,10,13.10
2015,05,18,05,11,13.10
2015,05,18,05,12,13.00
2015,05,18,05,13,13.00
2015,05,18,05,14,13.00
2015,05,18,05,15,13.00
2015,05,18,05,16,13.00
2015,05,18,05,17,13.00
2015,05,18,05,18,13.00
2015,05,18,05,19,13.00
2015,05,18,05,20,13.10
2015,05,18,05,21,13.10
2015,05,18,05,22,13.10
2015,05,18,05,23,13.10
2015,05,18,05,24,13.10
2015,05,18,05,25,13.10
2015,05,18,05,26,13.10
2015,05,18,05,27,13.10
2015,05,18,05,28,13.10
2015,05,18,05,29,13.10
2015,05,18,05,30,13.20
2015,05,18,05,31,13.20
2015,05,18,05,32,13.20
2015,05,18,05,33,13.20
2015,05,18,05,34,13.20
2015,05,18,05,35,13.20
2015,05,18,05,36,13.20
2015,05,18,05,37,13.20
2015,05,18,05,38,13.20
2015,05,18,05,39,13.20
2015,05,18,05,40,13.20
2015,05,18,05,41,13.30
2015,05,18,05,42,13.30
2015,05,18,05,43,13.30
2015,05,18,05,44,13.30
2015,05,18,05,45,13.30
2015,05,18,05,46,13.30
2015,05,18,05,47,13.30
2015,05,18,05,48,13.30
2015,05,18,05,49,13.40
2015,05,18,05,50,13.40
2015,05,18,05,51,13.40
2015,05,18,05,52,13.40
2015,05,18,05,53,13.40
2015,05,18,05,54,13.40
2015,05,18,05,55,13.40
2015,05,18,05,56,13.50
2015,05,18,05,57,13.50
2015,05,18,05,58,13.50
2015,05,18,05,59,13.50
2015,05,18,06,00,13.60
2015,05,18,06,01,13.60
2015,05,18,06,02,13.60
2015,05,18,06,03,13.60
2015,05,18,06,04,13.60
2015,05,18,06,05,13.70
2015,05,18,06,06,13.70
2015,05,18,06,07,13.70
2015,05,18,06,08,13.70
2015,05,18,06,09,13.80
2015,05,18,06,10,13.80
2015,05,18,06,11,13.80
2015,05,18,06,12,13.80
2015,05,18,06,13,13.80
2015,05,18,06,14,13.90
2015,05,18,06,15,13.90
2015,05,18,06,16,13.90
2015,05,18,06,17,13.90
2015,05,18,06,18,14.00
2015,05,18,06,19,14.00
2015,05,18,06,20,14.10
2015,05,18,06,21,14.10
2015,05,18,06,22,14.20
2015,05,18,06,23,14.20
2015,05,18,06,24,14.20
2015,05,18,06,25,14.30
2015,05,18,06,26,14.30
2015,05,18,06,27,14.30
2015,05,18,06,28,14.40
2015,05,18,06,29,14.50
2015,05,18,06,30,14.50
2015,05,18,06,31,14.60
2015,05,18,06,32,14.60
2015,05,18,06,33,14.70
2015,05,18,06,34,14.70
2015,05,18,06,35,14.80
2015,05,18,06,36,14.80
2015,05,18,06,37,14.80
2015,05,18,06,38,14.90
2015,05,18,06,39,14.90
2015,05,18,06,40,15.00
2015,05,18,06,41,15.00
2015,05,18,06,42,15.10
2015,05,18,06,43,15.10
2015,05,18,06,44,15.20
2015,05,18,06,45,15.20
2015,05,18,06,46,15.30
2015,05,18,06,47,15.30
2015,05,18,06,48,15.40
2015,05,18,06,49,15.40
2015,05,18,06,50,15.40
2015,05,18,06,51,15.50
2015,05,18,06,52,15.50
2015,05,18,06,53,15.60
2015,05,18,06,54,15.60
2015,05,18,06,55,15.60
2015,05,18,06,56,15.60
2015,05,18,06,57,15.60
2015,05,18,06,58,15.70
2015,05,18,06,59,15.70
2015,05,18,07,00,15.70
2015,05,18,07,01,15.70
2015,05,18,07,02,15.70
2015,05,18,07,03,15.70
2015,05,18,07,04,15.80
2015,05,18,07,05,15.80
2015,05,18,07,06,15.80
2015,05,18,07,07,15.90
2015,05,18,07,08,16.00
2015,05,18,07,09,16.00
2015,05,18,07,10,16.10
2015,05,18,07,11,16.10
2015,05,18,07,12,16.20
2015,05,18,07,13,16.20
2015,05,18,07,14,16.20
2015,05,18,07,15,16.30
2015,05,18,07,16,16.30
2015,05,18,07,17,16.40
2015,05,18,07,18,16.40
2015,05,18,07,19,16.50
2015,05,18,07,20,16.60
2015,05,18,07,21,16.60
2015,05,18,07,22,16.70
2015,05,18,07,23,16.80
2015,05,18,07,24,16.90
2015,05,18,07,25,16.90
2015,05,18,07,26,17.00
2015,05,18,07,27,17.00
2015,05,18,07,28,17.10
2015,05,18,07,29,17.10
2015,05,18,07,30,17.10
2015,05,18,07,31,17.10
2015,05,18,07,32,17.10
2015,05,18,07,33,17.10
2015,05,18,07,34,17.10
2015,05,18,07,35,17.10
2015,05,18,07,36,17.20
2015,05,18,07,37,17.20
2015,05,18,07,38,17.20
2015,05,18,07,39,17.20
2015,05,18,07,40,17.20
2015,05,18,07,41,17.20
2015,05,18,07,42,17.30
2015,05,18,07,43,17.30
2015,05,18,07,44,17.30
2015,05,18,07,45,17.20
2015,05,18,07,46,17.20
2015,05,18,07,47,17.20
2015,05,18,07,48,17.20
2015,05,18,07,49,17.20
2015,05,18,07,50,17.10
2015,05,18,07,51,17.10
2015,05,18,07,52,17.00
2015,05,18,07,53,17.00
2015,05,18,07,54,16.90
2015,05,18,07,55,16.90
2015,05,18,07,56,16.80
2015,05,18,07,57,16.80
2015,05,18,07,58,16.80
2015,05,18,07,59,16.80
2015,05,18,08,00,16.80
2015,05,18,08,01,16.80
2015,05,18,08,02,16.80
2015,05,18,08,03,16.80
2015,05,18,08,04,16.80
2015,05,18,08,05,16.80
2015,05,18,08,06,16.80
2015,05,18,08,07,16.80
2015,05,18,08,08,16.80
2015,05,18,08,09,16.80
2015,05,18,08,10,16.80
2015,05,18,08,11,16.70
2015,05,18,08,12,16.70
2015,05,18,08,13,16.70
2015,05,18,08,14,16.60
2015,05,18,08,15,16.60
2015,05,18,08,16,16.50
2015,05,18,08,17,16.50
2015,05,18,08,18,16.40
2015,05,18,08,19,16.40
2015,05,18,08,20,16.40
2015,05,18,08,21,16.40
2015,05,18,08,22,16.40
2015,05,18,08,23,16.30
2015,05,18,08,24,16.30
2015,05,18,08,25,16.30
2015,05,18,08,26,16.30
2015,05,18,08,27,16.20
2015,05,18,08,28,16.10
2015,05,18,08,29,16.10
2015,05,18,08,30,16.10
2015,05,18,08,31,16.10
2015,05,18,08,32,16.10
2015,05,18,08,33,16.10
2015,05,18,08,34,16.20
2015,05,18,08,35,16.30
2015,05,18,08,36,16.30
2015,05,18,08,37,16.40
2015,05,18,08,38,16.50
2015,05,18,08,39,16.60
2015,05,18,08,40,16.60
2015,05,18,08,41,16.70
2015,05,18,08,42,16.70
2015,05,18,08,43,16.80
2015,05,18,08,44,16.80
2015,05,18,08,45,16.90
2015,05,18,08,46,16.90
2015,05,18,08,47,16.90
2015,05,18,08,48,17.00
2015,05,18,08,49,17.10
2015,05,18,08,50,17.10
2015,05,18,08,51,17.20
2015,05,18,08,52,17.20
2015,05,18,08,53,17.20
2015,05,18,08,54,17.30
2015,05,18,08,55,17.30
2015,05,18,08,56,17.40
2015,05,18,08,57,17.40
2015,05,18,08,58,17.30
2015,05,18,08,59,17.30
2015,05,18,09,00,17.30
2015,05,18,09,01,17.30
2015,05,18,09,02,17.20
2015,05,18,09,03,17.20
2015,05,18,09,04,17.20
2015,05,18,09,05,17.20
2015,05,18,09,06,17.20
2015,05,18,09,07,17.20
2015,05,18,09,08,17.20
2015,05,18,09,09,17.20
2015,05,18,09,10,17.20
2015,05,18,09,11,17.10
2015,05,18,09,12,17.10
2015,05,18,09,13,17.10
2015,05,18,09,14,17.10
2015,05,18,09,15,17.00
2015,05,18,09,16,16.90
2015,05,18,09,17,16.80
2015,05,18,09,18,16.70
2015,05,18,09,19,16.60
2015,05,18,09,20,16.50
2015,05,18,09,21,16.50
2015,05,18,09,22,16.40
2015,05,18,09,23,16.30
2015,05,18,09,24,16.20
2015,05,18,09,25,16.20
2015,05,18,09,26,16.10
2015,05,18,09,27,16.10
2015,05,18,09,28,16.00
2015,05,18,09,29,16.00
2015,05,18,09,30,16.00
2015,05,18,09,31,15.90
2015,05,18,09,32,15.90
2015,05,18,09,33,15.90
2015,05,18,09,34,15.90
2015,05,18,09,35,16.00
2015,05,18,09,36,16.00
2015,05,18,09,37,16.00
2015,05,18,09,38,16.00
2015,05,18,09,39,16.00
2015,05,18,09,40,16.00
2015,05,18,09,41,16.00
2015,05,18,09,42,16.00
2015,05,18,09,43,15.90
2015,05,18,09,44,15.90
2015,05,18,09,45,15.80
2015,05,18,09,46,15.80
2015,05,18,09,47,15.80
2015,05,18,09,48,15.80
2015,05,18,09,49,15.90
2015,05,18,09,50,15.90
2015,05,18,09,51,15.90
2015,05,18,09,52,15.90
2015,05,18,09,53,15.90
2015,05,18,09,54,15.90
2015,05,18,09,55,15.80
2015,05,18,09,56,15.80
2015,05,18,09,57,15.80
2015,05,18,09,58,15.90
2015,05,18,09,59,15.90
2015,05,18,10,00,16.00
2015,05,18,10,01,16.20
2015,05,18,10,02,16.30
2015,05,18,10,03,16.40
2015,05,18,10,04,16.50
2015,05,18,10,05,16.70
2015,05,18,10,06,16.80
2015,05,18,10,07,16.80
2015,05,18,10,08,16.90
2015,05,18,10,09,16.90
2015,05,18,10,10,16.90
2015,05,18,10,11,16.90
2015,05,18,10,12,16.90
2015,05,18,10,13,16.90
2015,05,18,10,14,16.90
2015,05,18,10,15,16.90
2015,05,18,10,16,16.90
2015,05,18,10,17,16.90
2015,05,18,10,18,17.00
2015,05,18,10,19,17.00
2015,05,18,10,20,17.10
2015,05,18,10,21,17.10
2015,05,18,10,22,17.20
2015,05,18,10,23,17.20
2015,05,18,10,24,17.20
2015,05,18,10,25,17.10
2015,05,18,10,26,17.10
2015,05,18,10,27,17.10
2015,05,18,10,28,17.10
2015,05,18,10,29,17.10
2015,05,18,10,30,17.10
2015,05,18,10,31,17.10
2015,05,18,10,32,17.10
2015,05,18,10,33,17.00
2015,05,18,10,34,17.00
2015,05,18,10,35,17.00
2015,05,18,10,36,16.90
2015,05,18,10,37,16.90
2015,05,18,10,38,16.90
2015,05,18,10,39,16.80
2015,05,18,10,40,16.80
2015,05,18,10,41,16.80
2015,05,18,10,42,16.80
2015,05,18,10,43,16.80
2015,05,18,10,44,16.80
2015,05,18,10,45,16.80
2015,05,18,10,46,16.80
2015,05,18,10,47,16.90
2015,05,18,10,48,16.90
2015,05,18,10,49,17.00
2015,05,18,10,50,17.00
2015,05,18,10,51,17.00
2015,05,18,10,52,17.00
2015,05,18,10,53,17.00
2015,05,18,10,54,17.00
2015,05,18,10,55,17.10
2015,05,18,10,56,17.10
2015,05,18,10,57,17.10
2015,05,18,10,58,17.00
2015,05,18,10,59,17.00
2015,05,18,11,00,17.00
2015,05,18,11,01,17.10
2015,05,18,11,02,17.00
2015,05,18,11,03,17.00
2015,05,18,11,04,16.90
2015,05,18,11,05,16.90
2015,05,18,11,06,16.80
2015,05,18,11,07,16.80
2015,05,18,11,08,16.70
2015,05,18,11,09,16.80
2015,05,18,11,10,16.80
2015,05,18,11,11,16.80
2015,05,18,11,12,16.90
2015,05,18,11,13,17.00
2015,05,18,11,14,17.10
2015,05,18,11,15,17.20
2015,05,18,11,16,17.30
2015,05,18,11,17,17.40
2015,05,18,11,18,17.40
2015,05,18,11,19,17.50
2015,05,18,11,20,17.60
2015,05,18,11,21,17.60
2015,05,18,11,22,17.60
2015,05,18,11,23,17.60
2015,05,18,11,24,17.60
2015,05,18,11,25,17.60
2015,05,18,11,26,17.60
2015,05,18,11,27,17.70
2015,05,18,11,28,17.70
2015,05,18,11,29,17.90
2015,05,18,11,30,18.00
2015,05,18,11,31,18.20
2015,05,18,11,32,18.30
2015,05,18,11,33,18.40
2015,05,18,11,34,18.50
2015,05,18,11,35,18.50
2015,05,18,11,36,18.50
2015,05,18,11,37,18.60
2015,05,18,11,38,18.60
2015,05,18,11,39,18.70
2015,05,18,11,40,18.80
2015,05,18,11,41,18.80
2015,05,18,11,42,18.80
2015,05,18,11,43,18.80
2015,05,18,11,44,18.70
2015,05,18,11,45,18.70
2015,05,18,11,46,18.80
2015,05,18,11,47,18.80
2015,05,18,11,48,18.90
2015,05,18,11,49,18.90
2015,05,18,11,50,19.00
2015,05,18,11,51,19.10
2015,05,18,11,52,19.10
2015,05,18,11,53,19.20
2015,05,18,11,54,19.20
2015,05,18,11,55,19.30
2015,05,18,11,56,19.30
2015,05,18,11,57,19.30
2015,05,18,11,58,19.30
2015,05,18,11,59,19.20
2015,05,18,12,00,19.10
2015,05,18,12,01,19.00
2015,05,18,12,02,18.90
2015,05,18,12,03,18.80
2015,05,18,12,04,18.80
2015,05,18,12,05,18.70
2015,05,18,12,06,18.60
2015,05,18,12,07,18.50
2015,05,18,12,08,18.50
2015,05,18,12,09,18.40
2015,05,18,12,10,18.40
2015,05,18,12,11,18.40
2015,05,18,12,12,18.40
2015,05,18,12,13,18.40
2015,05,18,12,14,18.50
2015,05,18,12,15,18.60
2015,05,18,12,16,18.60
2015,05,18,12,17,18.70
2015,05,18,12,18,18.80
2015,05,18,12,19,18.80
2015,05,18,12,20,18.80
2015,05,18,12,21,18.80
2015,05,18,12,22,18.80
2015,05,18,12,23,18.70
2015,05,18,12,24,18.60
2015,05,18,12,25,18.60
2015,05,18,12,26,18.60
2015,05,18,12,27,18.50
2015,05,18,12,28,18.50
2015,05,18,12,29,18.50
2015,05,18,12,30,18.50
2015,05,18,12,31,18.40
2015,05,18,12,32,18.40
2015,05,18,12,33,18.40
2015,05,18,12,34,18.50
2015,05,18,12,35,18.60
2015,05,18,12,36,18.70
2015,05,18,12,37,18.70
2015,05,18,12,38,18.70
2015,05,18,12,39,18.70
2015,05,18,12,40,18.70
2015,05,18,12,41,18.70
2015,05,18,12,42,18.70
2015,05,18,12,43,18.70
2015,05,18,12,44,18.70
2015,05,18,12,45,18.70
2015,05,18,12,46,18.70
2015,05,18,12,47,18.80
2015,05,18,12,48,18.80
2015,05,18,12,49,18.80
2015,05,18,12,50,18.70
2015,05,18,12,51,18.70
2015,05,18,12,52,18.60
2015,05,18,12,53,18.60
2015,05,18,12,54,18.60
2015,05,18,12,55,18.60
2015,05,18,12,56,18.70
2015,05,18,12,57,18.70
2015,05,18,12,58,18.70
2015,05,18,12,59,18.70
2015,05,18,13,00,18.70
2015,05,18,13,01,18.70
2015,05,18,13,02,18.70
2015,05,18,13,03,18.80
2015,05,18,13,04,18.80
2015,05,18,13,05,18.80
2015,05,18,13,06,18.80
2015,05,18,13,07,18.80
2015,05,18,13,08,18.90
2015,05,18,13,09,18.90
2015,05,18,13,10,18.90
2015,05,18,13,11,18.90
2015,05,18,13,12,18.90
2015,05,18,13,13,18.90
2015,05,18,13,14,18.90
2015,05,18,13,15,19.00
2015,05,18,13,16,19.10
2015,05,18,13,17,19.10
2015,05,18,13,18,19.10
2015,05,18,13,19,19.10
2015,05,18,13,20,19.10
2015,05,18,13,21,19.10
2015,05,18,13,22,19.10
2015,05,18,13,23,19.10
2015,05,18,13,24,19.10
2015,05,18,13,25,19.10
2015,05,18,13,26,19.20
2015,05,18,13,27,19.20
2015,05,18,13,28,19.20
2015,05,18,13,29,19.20
2015,05,18,13,30,19.20
2015,05,18,13,31,19.20
2015,05,18,13,32,19.20
2015,05,18,13,33,19.20
2015,05,18,13,34,19.20
2015,05,18,13,35,19.20
2015,05,18,13,36,19.20
2015,05,18,13,37,19.10
2015,05,18,13,38,19.10
2015,05,18,13,39,19.00
2015,05,18,13,40,19.00
2015,05,18,13,41,19.00
2015,05,18,13,42,19.00
2015,05,18,13,43,19.00
2015,05,18,13,44,19.00
2015,05,18,13,45,19.00
2015,05,18,13,46,19.00
2015,05,18,13,47,19.10
2015,05,18,13,48,19.10
2015,05,18,13,49,19.20
2015,05,18,13,50,19.20
2015,05,18,13,51,19.20
2015,05,18,13,52,19.20
2015,05,18,13,53,19.20
2015,05,18,13,54,19.20
2015,05,18,13,55,19.20
2015,05,18,13,56,19.30
2015,05,18,13,57,19.30
2015,05,18,13,58,19.30
2015,05,18,13,59,19.40
2015,05,18,14,00,19.40
2015,05,18,14,01,19.40
2015,05,18,14,02,19.40
2015,05,18,14,03,19.40
2015,05,18,14,04,19.50
2015,05,18,14,05,19.50
2015,05,18,14,06,19.60
2015,05,18,14,07,19.60
2015,05,18,14,08,19.70
2015,05,18,14,09,19.70
2015,05,18,14,10,19.70
2015,05,18,14,11,19.70
2015,05,18,14,12,19.70
2015,05,18,14,13,19.70
2015,05,18,14,14,19.70
2015,05,18,14,15,19.80
2015,05,18,14,16,19.80
2015,05,18,14,17,19.80
2015,05,18,14,18,19.80
2015,05,18,14,19,19.80
2015,05,18,14,20,19.80
2015,05,18,14,21,19.80
2015,05,18,14,22,19.80
2015,05,18,14,23,19.70
2015,05,18,14,24,19.70
2015,05,18,14,25,19.70
2015,05,18,14,26,19.70
2015,05,18,14,27,19.70
2015,05,18,14,28,19.70
2015,05,18,14,29,19.70
2015,05,18,14,30,19.70
2015,05,18,14,31,19.70
2015,05,18,14,32,19.70
2015,05,18,14,33,19.70
2015,05,18,14,34,19.70
2015,05,18,14,35,19.70
2015,05,18,14,36,19.70
2015,05,18,14,37,19.70
2015,05,18,14,38,19.70
2015,05,18,14,39,19.70
2015,05,18,14,40,19.70
2015,05,18,14,41,19.70
2015,05,18,14,42,19.70
2015,05,18,14,43,19.70
2015,05,18,14,44,19.70
2015,05,18,14,45,19.70
2015,05,18,14,46,19.70
2015,05,18,14,47,19.70
2015,05,18,14,48,19.70
2015,05,18,14,49,19.70
2015,05,18,14,50,19.60
2015,05,18,14,51,19.60
2015,05,18,14,52,19.60
2015,05,18,14,53,19.70
2015,05,18,14,54,19.70
2015,05,18,14,55,19.70
2015,05,18,14,56,19.70
2015,05,18,14,57,19.60
2015,05,18,14,58,19.60
2015,05,18,14,59,19.70
2015,05,18,15,00,19.70
2015,05,18,15,01,19.70
2015,05,18,15,02,19.80
2015,05,18,15,03,19.80
2015,05,18,15,04,19.80
2015,05,18,15,05,19.80
2015,05,18,15,06,19.80
2015,05,18,15,07,19.80
2015,05,18,15,08,19.80
2015,05,18,15,09,19.70
2015,05,18,15,10,19.70
2015,05,18,15,11,19.70
2015,05,18,15,12,19.70
2015,05,18,15,13,19.70
2015,05,18,15,14,19.80
2015,05,18,15,15,19.80
2015,05,18,15,16,19.90
2015,05,18,15,17,19.90
2015,05,18,15,18,20.00
2015,05,18,15,19,20.00
2015,05,18,15,20,20.10
2015,05,18,15,21,20.20
2015,05,18,15,22,20.20
2015,05,18,15,23,20.20
2015,05,18,15,24,20.20
2015,05,18,15,25,20.10
2015,05,18,15,26,20.10
2015,05,18,15,27,20.00
2015,05,18,15,28,20.00
2015,05,18,15,29,20.10
2015,05,18,15,30,20.10
2015,05,18,15,31,20.10
2015,05,18,15,32,20.10
2015,05,18,15,33,20.10
2015,05,18,15,34,20.20
2015,05,18,15,35,20.30
2015,05,18,15,36,20.30
2015,05,18,15,37,20.30
2015,05,18,15,38,20.40
2015,05,18,15,39,20.40
2015,05,18,15,40,20.40
2015,05,18,15,41,20.40
2015,05,18,15,42,20.40
2015,05,18,15,43,20.40
2015,05,18,15,44,20.40
2015,05,18,15,45,20.40
2015,05,18,15,46,20.40
2015,05,18,15,47,20.40
2015,05,18,15,48,20.40
2015,05,18,15,49,20.40
2015,05,18,15,50,20.50
2015,05,18,15,51,20.50
2015,05,18,15,52,20.50
2015,05,18,15,53,20.40
2015,05,18,15,54,20.40
2015,05,18,15,55,20.30
2015,05,18,15,56,20.30
2015,05,18,15,57,20.30
2015,05,18,15,58,20.30
2015,05,18,15,59,20.30
2015,05,18,16,00,20.30
2015,05,18,16,01,20.40
2015,05,18,16,02,20.40
2015,05,18,16,03,20.50
2015,05,18,16,04,20.50
2015,05,18,16,05,20.60
2015,05,18,16,06,20.60
2015,05,18,16,07,20.70
2015,05,18,16,08,20.70
2015,05,18,16,09,20.80
2015,05,18,16,10,20.80
2015,05,18,16,11,20.80
2015,05,18,16,12,20.90
2015,05,18,16,13,20.90
2015,05,18,16,14,21.00
2015,05,18,16,15,21.10
2015,05,18,16,16,21.20
2015,05,18,16,17,21.30
2015,05,18,16,18,21.30
2015,05,18,16,19,21.40
2015,05,18,16,20,21.40
2015,05,18,16,21,21.40
2015,05,18,16,22,21.40
2015,05,18,16,23,21.40
2015,05,18,16,24,21.30
2015,05,18,16,25,21.30
2015,05,18,16,26,21.30
2015,05,18,16,27,21.30
2015,05,18,16,28,21.40
2015,05,18,16,29,21.40
2015,05,18,16,30,21.40
2015,05,18,16,31,21.40
2015,05,18,16,32,21.40
2015,05,18,16,33,21.40
2015,05,18,16,34,21.40
2015,05,18,16,35,21.40
2015,05,18,16,36,21.40
2015,05,18,16,37,21.40
2015,05,18,16,38,21.40
2015,05,18,16,39,21.40
2015,05,18,16,40,21.40
2015,05,18,16,41,21.40
2015,05,18,16,42,21.40
2015,05,18,16,43,21.50
2015,05,18,16,44,21.50
2015,05,18,16,45,21.60
2015,05,18,16,46,21.60
2015,05,18,16,47,21.60
2015,05,18,16,48,21.60
2015,05,18,16,49,21.50
2015,05,18,16,50,21.40
2015,05,18,16,51,21.30
2015,05,18,16,52,21.30
2015,05,18,16,53,21.20
2015,05,18,16,54,21.20
2015,05,18,16,55,21.20
2015,05,18,16,56,21.20
2015,05,18,16,57,21.20
2015,05,18,16,58,21.30
2015,05,18,16,59,21.30
2015,05,18,17,00,21.40
2015,05,18,17,01,21.40
2015,05,18,17,02,21.30
2015,05,18,17,03,21.20
2015,05,18,17,04,21.10
2015,05,18,17,05,21.10
2015,05,18,17,06,21.10
2015,05,18,17,07,21.00
2015,05,18,17,08,21.00
2015,05,18,17,09,21.00
2015,05,18,17,10,21.10
2015,05,18,17,11,21.10
2015,05,18,17,12,21.10
2015,05,18,17,13,21.20
2015,05,18,17,14,21.20
2015,05,18,17,15,21.30
2015,05,18,17,16,21.40
2015,05,18,17,17,21.40
2015,05,18,17,18,21.40
2015,05,18,17,19,21.40
2015,05,18,17,20,21.30
2015,05,18,17,21,21.20
2015,05,18,17,22,21.10